Voltar ao catálogo

STARLINK-3079

AtivoComunicaçõesVLEO
NORAD 49433·PAYLOAD·🇺🇸 United States

Lançado Nov 13, 2021 de Cape Canaveral Space Force Station

Loading…

Próximas Passagens (próximas 24 horas)

TLE

AtualizadoSource: CelesTrak SupGP

Época: Sep 14, 2026, 20:28 UTC

1 49433C 21104AB  26257.85326389  .00647860  00000+0  19241-1 0  2572
2 49433  53.1594  76.3101 0001218  81.0279 232.4860 15.33904676    19

Acompanhe STARLINK-3079 em tempo real com AllMySat

Download on the App Store